Time,TemperatureF,DewpointF,PressureIn,WindDirection,WindDirectionDegrees,WindSpeedMPH,WindSpeedGustMPH,Humidity,HourlyPrecipIn,Conditions,Clouds,dailyrainin,SoftwareType,DateUTC
2013-04-16 00:01:00,20.8,14.4,30.29,WSW,247,0.0,0.0,76,0.00,,---,0.03,VWS V13.01,2013-04-16 06:01:00,
2013-04-16 00:06:00,20.8,14.4,30.29,SSW,207,0.0,0.0,76,0.00,,---,0.00,VWS V13.01,2013-04-16 06:06:00,
2013-04-16 00:11:00,20.6,14.2,30.29,West,266,0.0,2.0,76,0.00,,---,0.00,VWS V13.01,2013-04-16 06:11:00,
2013-04-16 00:16:00,20.6,13.9,30.29,WSW,250,0.0,1.0,75,0.00,,---,0.00,VWS V13.01,2013-04-16 06:16:00,
2013-04-16 00:21:00,20.6,13.6,30.29,WSW,245,0.0,2.0,74,0.00,,---,0.00,VWS V13.01,2013-04-16 06:21:00,
2013-04-16 00:26:00,20.6,13.9,30.29,NNE,15,0.0,2.0,75,0.00,,---,0.00,VWS V13.01,2013-04-16 06:26:00,
2013-04-16 00:31:00,20.6,13.6,30.28,NNE,15,0.0,0.0,74,0.00,,---,0.00,VWS V13.01,2013-04-16 06:31:00,
2013-04-16 00:36:00,20.6,13.9,30.28,West,270,0.0,2.0,75,0.00,,---,0.00,VWS V13.01,2013-04-16 06:36:00,
2013-04-16 00:42:00,20.6,14.2,30.28,West,269,0.0,0.0,76,0.00,,---,0.00,VWS V13.01,2013-04-16 06:42:00,
2013-04-16 00:47:00,20.6,14.6,30.28,West,259,1.0,2.0,77,0.00,,---,0.00,VWS V13.01,2013-04-16 06:47:00,
2013-04-16 00:52:00,20.5,14.7,30.28,WSW,254,0.0,0.0,78,0.00,,---,0.00,VWS V13.01,2013-04-16 06:52:00,
2013-04-16 00:57:00,20.5,14.7,30.28,West,277,0.0,0.0,78,0.00,,---,0.00,VWS V13.01,2013-04-16 06:57:00,
2013-04-16 01:02:00,20.3,14.6,30.28,SE,133,0.0,0.0,78,0.00,,---,0.00,VWS V13.01,2013-04-16 07:02:00,
2013-04-16 01:07:00,20.3,14.6,30.28,ESE,113,0.0,0.0,78,0.00,,---,0.00,VWS V13.01,2013-04-16 07:07:00,
2013-04-16 01:12:00,20.3,14.8,30.28,SW,217,2.0,2.0,79,0.00,,---,0.00,VWS V13.01,2013-04-16 07:12:00,
2013-04-16 01:17:00,20.2,14.4,30.27,WSW,250,0.0,1.0,78,0.00,,---,0.00,VWS V13.01,2013-04-16 07:17:00,
2013-04-16 01:23:00,20.2,14.7,30.27,West,261,0.0,1.0,79,0.00,,---,0.00,VWS V13.01,2013-04-16 07:23:00,
2013-04-16 01:28:00,20.2,14.7,30.27,WSW,257,0.0,2.0,79,0.00,,---,0.00,VWS V13.01,2013-04-16 07:28:00,
2013-04-16 01:33:00,20.2,14.4,30.27,WSW,257,0.0,1.0,78,0.00,,---,0.00,VWS V13.01,2013-04-16 07:33:00,
2013-04-16 01:38:00,20.0,14.3,30.27,WSW,254,0.0,2.0,78,0.00,,---,0.00,VWS V13.01,2013-04-16 07:38:00,
2013-04-16 01:43:00,20.0,14.3,30.27,WSW,242,1.0,1.0,78,0.00,,---,0.00,VWS V13.01,2013-04-16 07:43:00,
2013-04-16 01:48:00,20.0,14.3,30.26,WSW,242,0.0,0.0,78,0.00,,---,0.00,VWS V13.01,2013-04-16 07:48:00,
2013-04-16 01:53:00,20.0,14.0,30.26,WSW,253,0.0,1.0,77,0.00,,---,0.00,VWS V13.01,2013-04-16 07:53:00,
2013-04-16 01:58:00,19.9,13.9,30.26,WSW,251,0.0,0.0,77,0.00,,---,0.00,VWS V13.01,2013-04-16 07:58:00,
2013-04-16 02:04:00,19.9,13.9,30.27,SW,230,0.0,2.0,77,0.00,,---,0.00,VWS V13.01,2013-04-16 08:04:00,
2013-04-16 02:09:00,19.9,13.9,30.27,WSW,244,1.0,3.0,77,0.00,,---,0.00,VWS V13.01,2013-04-16 08:09:00,
2013-04-16 02:14:00,19.9,13.9,30.27,WSW,257,0.0,2.0,77,0.00,,---,0.00,VWS V13.01,2013-04-16 08:14:00,
2013-04-16 02:19:00,19.9,13.9,30.27,West,260,0.0,4.0,77,0.00,,---,0.00,VWS V13.01,2013-04-16 08:19:00,
2013-04-16 02:24:00,19.9,13.9,30.27,West,260,0.0,0.0,77,0.00,,---,0.00,VWS V13.01,2013-04-16 08:24:00,
2013-04-16 02:30:00,19.9,13.9,30.27,West,260,0.0,0.0,77,0.00,,---,0.00,VWS V13.01,2013-04-16 08:30:00,
2013-04-16 02:35:00,19.9,13.9,30.28,WSW,254,1.0,2.0,77,0.00,,---,0.00,VWS V13.01,2013-04-16 08:35:00,
2013-04-16 02:40:00,19.9,13.9,30.28,WSW,256,0.0,0.0,77,0.00,,---,0.00,VWS V13.01,2013-04-16 08:40:00,
2013-04-16 02:45:00,19.9,13.9,30.28,WSW,256,1.0,1.0,77,0.00,,---,0.00,VWS V13.01,2013-04-16 08:45:00,
2013-04-16 02:50:00,19.9,13.6,30.29,West,259,0.0,1.0,76,0.00,,---,0.00,VWS V13.01,2013-04-16 08:50:00,
2013-04-16 02:56:00,19.9,13.6,30.29,West,267,0.0,3.0,76,0.00,,---,0.00,VWS V13.01,2013-04-16 08:56:00,
2013-04-16 03:01:00,19.9,13.9,30.29,WSW,257,1.0,4.0,77,0.00,,---,0.00,VWS V13.01,2013-04-16 09:01:00,
2013-04-16 03:06:00,19.9,13.6,30.29,SW,234,0.0,3.0,76,0.00,,---,0.00,VWS V13.01,2013-04-16 09:06:00,
2013-04-16 03:11:00,19.9,13.6,30.29,ESE,123,0.0,2.0,76,0.00,,---,0.00,VWS V13.01,2013-04-16 09:11:00,
2013-04-16 03:16:00,19.9,13.6,30.28,ESE,118,0.0,0.0,76,0.00,,---,0.00,VWS V13.01,2013-04-16 09:16:00,
2013-04-16 03:22:00,19.9,13.9,30.28,SSE,157,0.0,0.0,77,0.00,,---,0.00,VWS V13.01,2013-04-16 09:22:00,
2013-04-16 03:27:00,19.9,13.6,30.28,WSW,257,0.0,0.0,76,0.00,,---,0.00,VWS V13.01,2013-04-16 09:27:00,
2013-04-16 03:32:00,19.7,13.4,30.28,WSW,246,0.0,0.0,76,0.00,,---,0.00,VWS V13.01,2013-04-16 09:32:00,
2013-04-16 03:37:00,19.7,13.7,30.28,WSW,245,0.0,1.0,77,0.00,,---,0.00,VWS V13.01,2013-04-16 09:37:00,
2013-04-16 03:42:00,19.7,13.7,30.28,WSW,245,0.0,0.0,77,0.00,,---,0.00,VWS V13.01,2013-04-16 09:42:00,
2013-04-16 03:48:00,19.7,13.7,30.29,WSW,245,0.0,0.0,77,0.00,,---,0.00,VWS V13.01,2013-04-16 09:48:00,
2013-04-16 03:53:00,19.7,13.7,30.29,WSW,245,0.0,1.0,77,0.00,,---,0.00,VWS V13.01,2013-04-16 09:53:00,
2013-04-16 03:58:00,19.5,13.5,30.29,WSW,244,2.0,3.0,77,0.00,,---,0.00,VWS V13.01,2013-04-16 09:58:00,
2013-04-16 04:03:00,19.5,13.5,30.29,WSW,246,0.0,0.0,77,0.00,,---,0.00,VWS V13.01,2013-04-16 10:03:00,
2013-04-16 04:08:00,19.4,13.4,30.29,WSW,246,0.0,0.0,77,0.00,,---,0.00,VWS V13.01,2013-04-16 10:08:00,
2013-04-16 04:13:00,19.4,13.4,30.29,WSW,246,0.0,0.0,77,0.00,,---,0.00,VWS V13.01,2013-04-16 10:13:00,
2013-04-16 04:18:00,19.4,13.4,30.31,WSW,246,0.0,0.0,77,0.00,,---,0.00,VWS V13.01,2013-04-16 10:18:00,
2013-04-16 04:23:00,19.2,13.2,30.31,WSW,246,0.0,0.0,77,0.00,,---,0.00,VWS V13.01,2013-04-16 10:23:00,
2013-04-16 04:29:00,19.1,13.1,30.31,WSW,246,0.0,0.0,77,0.00,,---,0.00,VWS V13.01,2013-04-16 10:29:00,
2013-04-16 04:34:00,19.1,13.1,30.31,WSW,246,0.0,0.0,77,0.00,,---,0.00,VWS V13.01,2013-04-16 10:34:00,
2013-04-16 04:39:00,19.1,13.1,30.31,WSW,246,0.0,0.0,77,0.00,,---,0.00,VWS V13.01,2013-04-16 10:39:00,
2013-04-16 04:44:00,18.9,12.9,30.31,WSW,246,0.0,0.0,77,0.00,,---,0.00,VWS V13.01,2013-04-16 10:44:00,
2013-04-16 04:49:00,18.8,12.5,30.31,WSW,246,0.0,0.0,76,0.00,,---,0.00,VWS V13.01,2013-04-16 10:49:00,
2013-04-16 04:55:00,18.4,12.1,30.31,WSW,246,0.0,0.0,76,0.00,,---,0.00,VWS V13.01,2013-04-16 10:55:00,
2013-04-16 05:00:00,18.1,11.8,30.31,WSW,246,0.0,0.0,76,0.00,,---,0.00,VWS V13.01,2013-04-16 11:00:00,
2013-04-16 05:05:00,17.7,11.4,30.31,WSW,246,0.0,0.0,76,0.00,,---,0.00,VWS V13.01,2013-04-16 11:05:00,
2013-04-16 05:10:00,17.3,11.1,30.31,WSW,246,0.0,0.0,76,0.00,,---,0.00,VWS V13.01,2013-04-16 11:10:00,
2013-04-16 05:15:00,17.2,11.2,30.31,WSW,246,0.0,0.0,77,0.00,,---,0.00,VWS V13.01,2013-04-16 11:15:00,
2013-04-16 05:20:00,17.2,11.5,30.33,WSW,246,0.0,0.0,78,0.00,,---,0.00,VWS V13.01,2013-04-16 11:20:00,
2013-04-16 05:25:00,17.2,11.8,30.33,WSW,246,0.0,0.0,79,0.00,,---,0.00,VWS V13.01,2013-04-16 11:25:00,
2013-04-16 05:30:00,17.3,12.2,30.32,WSW,246,0.0,0.0,80,0.00,,---,0.00,VWS V13.01,2013-04-16 11:30:00,
2013-04-16 05:35:00,17.5,12.4,30.32,WSW,246,0.0,0.0,80,0.00,,---,0.00,VWS V13.01,2013-04-16 11:35:00,
2013-04-16 05:41:00,17.7,12.6,30.32,WSW,246,0.0,0.0,80,0.00,,---,0.00,VWS V13.01,2013-04-16 11:41:00,
2013-04-16 05:46:00,17.8,12.7,30.32,WSW,246,0.0,0.0,80,0.00,,---,0.00,VWS V13.01,2013-04-16 11:46:00,
2013-04-16 05:51:00,18.0,12.6,30.32,WSW,246,0.0,0.0,79,0.00,,---,0.00,VWS V13.01,2013-04-16 11:51:00,
2013-04-16 05:56:00,18.0,12.6,30.32,WSW,246,0.0,0.0,79,0.00,,---,0.00,VWS V13.01,2013-04-16 11:56:00,
2013-04-16 06:02:00,18.1,12.7,30.32,WSW,246,0.0,0.0,79,0.00,,---,0.00,VWS V13.01,2013-04-16 12:02:00,
2013-04-16 06:07:00,18.3,12.9,30.32,WSW,246,0.0,0.0,79,0.00,,---,0.00,VWS V13.01,2013-04-16 12:07:00,
2013-04-16 06:12:00,18.3,12.9,30.32,WSW,246,0.0,0.0,79,0.00,,---,0.00,VWS V13.01,2013-04-16 12:12:00,
2013-04-16 06:17:00,18.3,12.9,30.33,WSW,246,0.0,0.0,79,0.00,,---,0.00,VWS V13.01,2013-04-16 12:17:00,
2013-04-16 06:22:00,18.4,12.4,30.33,WSW,246,0.0,0.0,77,0.00,,---,0.00,VWS V13.01,2013-04-16 12:22:00,
2013-04-16 06:28:00,18.4,12.4,30.33,WSW,246,0.0,0.0,77,0.00,,---,0.00,VWS V13.01,2013-04-16 12:28:00,
2013-04-16 06:33:00,18.6,12.3,30.33,WSW,246,0.0,0.0,76,0.00,,---,0.00,VWS V13.01,2013-04-16 12:33:00,
2013-04-16 06:39:00,18.6,12.3,30.33,WSW,246,0.0,0.0,76,0.00,,---,0.00,VWS V13.01,2013-04-16 12:39:00,
2013-04-16 06:44:00,18.6,12.3,30.33,WSW,246,0.0,0.0,76,0.00,,---,0.00,VWS V13.01,2013-04-16 12:44:00,
2013-04-16 06:49:00,18.8,12.5,30.32,WSW,246,0.0,0.0,76,0.00,,---,0.00,VWS V13.01,2013-04-16 12:49:00,
2013-04-16 06:54:00,18.8,12.5,30.32,WSW,246,0.0,0.0,76,0.00,,---,0.00,VWS V13.01,2013-04-16 12:54:00,
2013-04-16 06:59:00,18.8,12.5,30.32,WSW,246,0.0,0.0,76,0.00,,---,0.00,VWS V13.01,2013-04-16 12:59:00,
2013-04-16 07:04:00,18.8,12.5,30.32,WSW,246,0.0,0.0,76,0.00,,---,0.00,VWS V13.01,2013-04-16 13:04:00,
2013-04-16 07:10:00,18.9,12.3,30.32,WSW,246,0.0,0.0,75,0.00,,---,0.00,VWS V13.01,2013-04-16 13:10:00,
2013-04-16 07:15:00,18.9,12.6,30.32,WSW,246,0.0,0.0,76,0.00,,---,0.00,VWS V13.01,2013-04-16 13:15:00,
2013-04-16 07:20:00,19.1,12.8,30.33,WSW,246,0.0,0.0,76,0.00,,---,0.00,VWS V13.01,2013-04-16 13:20:00,
2013-04-16 07:25:00,19.2,12.9,30.33,WSW,246,0.0,1.0,76,0.00,,---,0.00,VWS V13.01,2013-04-16 13:25:00,
2013-04-16 07:30:00,19.2,12.9,30.33,WSW,246,0.0,0.0,76,0.00,,---,0.00,VWS V13.01,2013-04-16 13:30:00,
2013-04-16 07:35:00,19.4,13.1,30.33,WSW,246,0.0,2.0,76,0.00,,---,0.00,VWS V13.01,2013-04-16 13:35:00,
2013-04-16 07:40:00,19.4,13.1,30.33,WSW,246,0.0,0.0,76,0.00,,---,0.00,VWS V13.01,2013-04-16 13:40:00,
2013-04-16 07:45:00,19.5,13.2,30.32,WSW,246,0.0,0.0,76,0.00,,---,0.00,VWS V13.01,2013-04-16 13:45:00,
2013-04-16 07:51:00,19.7,13.1,30.32,WSW,246,0.0,0.0,75,0.00,,---,0.00,VWS V13.01,2013-04-16 13:51:00,
2013-04-16 07:56:00,19.7,13.1,30.32,North,355,0.0,1.0,75,0.00,,---,0.00,VWS V13.01,2013-04-16 13:56:00,
2013-04-16 08:01:00,19.7,13.4,30.33,North,355,0.0,0.0,76,0.00,,---,0.00,VWS V13.01,2013-04-16 14:01:00,
2013-04-16 08:06:00,19.7,13.1,30.33,North,9,0.0,2.0,75,0.00,,---,0.00,VWS V13.01,2013-04-16 14:06:00,
2013-04-16 08:11:00,19.7,12.8,30.33,SE,130,0.0,2.0,74,0.00,,---,0.00,VWS V13.01,2013-04-16 14:11:00,
2013-04-16 08:17:00,19.7,12.8,30.34,WSW,258,0.0,2.0,74,0.00,,---,0.00,VWS V13.01,2013-04-16 14:17:00,
2013-04-16 08:22:00,19.7,13.1,30.34,NNW,347,0.0,2.0,75,0.00,,---,0.00,VWS V13.01,2013-04-16 14:22:00,
2013-04-16 08:27:00,19.7,13.1,30.34,WSW,252,2.0,2.0,75,0.00,,---,0.00,VWS V13.01,2013-04-16 14:27:00,
2013-04-16 08:32:00,19.7,12.8,30.35,SSW,201,0.0,0.0,74,0.00,,---,0.00,VWS V13.01,2013-04-16 14:32:00,
2013-04-16 08:37:00,19.9,13.3,30.35,SSW,209,2.0,2.0,75,0.00,,---,0.00,VWS V13.01,2013-04-16 14:37:00,
2013-04-16 08:43:00,19.9,13.3,30.35,WSW,253,1.0,5.0,75,0.00,,---,0.00,VWS V13.01,2013-04-16 14:43:00,
2013-04-16 08:48:00,19.9,13.3,30.35,WNW,284,0.0,2.0,75,0.00,,---,0.00,VWS V13.01,2013-04-16 14:48:00,
2013-04-16 08:54:00,19.9,13.3,30.35,SW,236,0.0,4.0,75,0.00,,---,0.00,VWS V13.01,2013-04-16 14:54:00,
2013-04-16 09:00:00,19.9,13.6,30.35,ESE,122,0.0,1.0,76,0.00,,---,0.00,VWS V13.01,2013-04-16 15:00:00,
2013-04-16 09:05:00,20.0,13.7,30.35,NE,45,0.0,2.0,76,0.00,,---,0.00,VWS V13.01,2013-04-16 15:05:00,
2013-04-16 09:10:00,20.2,13.9,30.35,SE,138,0.0,2.0,76,0.00,,---,0.00,VWS V13.01,2013-04-16 15:10:00,
2013-04-16 09:16:00,20.2,13.9,30.36,ESE,109,0.0,3.0,76,0.00,,---,0.00,VWS V13.01,2013-04-16 15:16:00,
2013-04-16 09:21:00,20.0,14.0,30.36,SSW,210,2.0,4.0,77,0.00,,---,0.00,VWS V13.01,2013-04-16 15:21:00,
2013-04-16 09:26:00,20.0,14.0,30.36,West,279,0.0,2.0,77,0.00,,---,0.00,VWS V13.01,2013-04-16 15:26:00,
2013-04-16 09:31:00,20.3,14.6,30.36,SSW,194,0.0,4.0,78,0.00,,---,0.00,VWS V13.01,2013-04-16 15:31:00,
2013-04-16 09:36:00,20.5,14.1,30.36,SW,232,2.0,6.0,76,0.00,,---,0.00,VWS V13.01,2013-04-16 15:36:00,
2013-04-16 09:41:00,20.6,13.3,30.36,WSW,250,0.0,4.0,73,0.00,,---,0.00,VWS V13.01,2013-04-16 15:41:00,
2013-04-16 09:46:00,20.8,13.2,30.35,SW,232,1.0,4.0,72,0.00,,---,0.00,VWS V13.01,2013-04-16 15:46:00,
2013-04-16 09:51:00,21.0,13.1,30.35,SW,227,2.0,3.0,71,0.00,,---,0.00,VWS V13.01,2013-04-16 15:51:00,
2013-04-16 09:56:00,21.3,13.7,30.35,WSW,248,7.0,7.0,72,0.00,,---,0.00,VWS V13.01,2013-04-16 15:56:00,
2013-04-16 10:01:00,21.4,13.5,30.35,NE,51,0.0,7.0,71,0.00,,---,0.00,VWS V13.01,2013-04-16 16:01:00,
2013-04-16 10:06:00,21.9,13.3,30.35,West,271,3.0,4.0,69,0.00,,---,0.00,VWS V13.01,2013-04-16 16:06:00,
2013-04-16 10:11:00,21.9,13.0,30.35,NE,47,2.0,5.0,68,0.00,,---,0.00,VWS V13.01,2013-04-16 16:11:00,
2013-04-16 10:16:00,22.1,12.8,30.35,SW,219,1.0,6.0,67,0.00,,---,0.00,VWS V13.01,2013-04-16 16:16:00,
2013-04-16 10:21:00,22.1,12.8,30.35,SW,232,4.0,7.0,67,0.00,,---,0.00,VWS V13.01,2013-04-16 16:21:00,
2013-04-16 10:26:00,22.2,12.9,30.35,ENE,74,1.0,7.0,67,0.00,,---,0.00,VWS V13.01,2013-04-16 16:26:00,
2013-04-16 10:31:00,22.4,12.8,30.35,NNW,347,2.0,3.0,66,0.00,,---,0.00,VWS V13.01,2013-04-16 16:31:00,
2013-04-16 10:36:00,22.5,12.2,30.35,NE,35,0.0,3.0,64,0.00,,---,0.00,VWS V13.01,2013-04-16 16:36:00,
2013-04-16 10:41:00,22.7,12.4,30.35,WSW,237,0.0,5.0,64,0.00,,---,0.00,VWS V13.01,2013-04-16 16:41:00,
2013-04-16 10:46:00,22.9,11.8,30.34,West,278,1.0,4.0,62,0.00,,---,0.00,VWS V13.01,2013-04-16 16:46:00,
2013-04-16 10:51:00,23.0,12.6,30.34,NW,311,1.0,4.0,64,0.00,,---,0.00,VWS V13.01,2013-04-16 16:51:00,
2013-04-16 10:56:00,22.7,11.6,30.34,West,263,1.0,9.0,62,0.00,,---,0.00,VWS V13.01,2013-04-16 16:56:00,
2013-04-16 11:01:00,22.4,12.1,30.35,SW,217,0.0,7.0,64,0.00,,---,0.00,VWS V13.01,2013-04-16 17:01:00,
2013-04-16 11:06:00,22.4,12.1,30.35,WSW,248,2.0,6.0,64,0.00,,---,0.00,VWS V13.01,2013-04-16 17:06:00,
2013-04-16 11:11:00,22.5,12.2,30.35,SW,227,3.0,7.0,64,0.00,,---,0.00,VWS V13.01,2013-04-16 17:11:00,
2013-04-16 11:16:00,22.9,12.6,30.36,South,176,0.0,4.0,64,0.00,,---,0.00,VWS V13.01,2013-04-16 17:16:00,
2013-04-16 11:22:00,22.7,13.4,30.36,SW,234,3.0,3.0,67,0.00,,---,0.00,VWS V13.01,2013-04-16 17:22:00,
2013-04-16 11:27:00,22.5,12.9,30.36,WSW,243,3.0,6.0,66,0.00,,---,0.00,VWS V13.01,2013-04-16 17:27:00,
2013-04-16 11:32:00,22.5,12.9,30.36,SSW,198,1.0,1.0,66,0.00,,---,0.00,VWS V13.01,2013-04-16 17:32:00,
2013-04-16 11:37:00,22.9,13.6,30.36,SW,219,1.0,3.0,67,0.00,,---,0.00,VWS V13.01,2013-04-16 17:37:00,
2013-04-16 11:42:00,23.2,12.8,30.36,South,179,2.0,2.0,64,0.00,,---,0.00,VWS V13.01,2013-04-16 17:42:00,
2013-04-16 11:47:00,23.3,12.6,30.36,SSW,198,3.0,4.0,63,0.00,,---,0.00,VWS V13.01,2013-04-16 17:47:00,
2013-04-16 11:52:00,23.5,13.5,30.36,West,265,2.0,5.0,65,0.00,,---,0.00,VWS V13.01,2013-04-16 17:52:00,
2013-04-16 11:57:00,23.5,13.8,30.36,SW,215,2.0,3.0,66,0.00,,---,0.00,VWS V13.01,2013-04-16 17:57:00,
2013-04-16 12:02:00,23.5,13.1,30.36,SW,215,3.0,4.0,64,0.00,,---,0.00,VWS V13.01,2013-04-16 18:02:00,
2013-04-16 12:07:00,23.3,13.6,30.36,WSW,254,3.0,7.0,66,0.00,,---,0.00,VWS V13.01,2013-04-16 18:07:00,
2013-04-16 12:13:00,23.5,13.5,30.36,SW,214,2.0,5.0,65,0.00,,---,0.00,VWS V13.01,2013-04-16 18:13:00,
2013-04-16 12:18:00,23.6,13.2,30.36,NE,37,0.0,6.0,64,0.00,,---,0.00,VWS V13.01,2013-04-16 18:18:00,
2013-04-16 12:23:00,24.1,11.9,30.36,SW,230,4.0,10.0,59,0.00,,---,0.00,VWS V13.01,2013-04-16 18:23:00,
2013-04-16 12:28:00,24.4,12.1,30.36,WSW,252,1.0,5.0,59,0.00,,---,0.00,VWS V13.01,2013-04-16 18:28:00,
2013-04-16 12:33:00,24.7,12.0,30.36,SSW,207,2.0,10.0,58,0.00,,---,0.00,VWS V13.01,2013-04-16 18:33:00,
2013-04-16 12:38:00,24.7,12.8,30.36,West,260,5.0,8.0,60,0.00,,---,0.00,VWS V13.01,2013-04-16 18:38:00,
2013-04-16 12:44:00,25.3,13.4,30.36,ENE,70,0.0,2.0,60,0.00,,---,0.00,VWS V13.01,2013-04-16 18:44:00,
2013-04-16 12:49:00,25.6,13.3,30.35,NNE,19,0.0,6.0,59,0.00,,---,0.00,VWS V13.01,2013-04-16 18:49:00,
2013-04-16 12:54:00,25.6,13.3,30.35,NNW,339,0.0,5.0,59,0.00,,---,0.00,VWS V13.01,2013-04-16 18:54:00,
2013-04-16 12:59:00,25.6,12.5,30.35,SW,231,0.0,5.0,57,0.00,,---,0.00,VWS V13.01,2013-04-16 18:59:00,
2013-04-16 13:04:00,25.7,11.8,30.34,WSW,239,0.0,9.0,55,0.00,,---,0.00,VWS V13.01,2013-04-16 19:04:00,
2013-04-16 13:10:00,26.3,11.5,30.34,SW,215,3.0,5.0,53,0.00,,---,0.00,VWS V13.01,2013-04-16 19:10:00,
2013-04-16 13:15:00,26.6,12.2,30.34,WSW,243,0.0,5.0,54,0.00,,---,0.00,VWS V13.01,2013-04-16 19:15:00,
2013-04-16 13:20:00,25.8,10.6,30.34,SSE,156,0.0,9.0,52,0.00,,---,0.00,VWS V13.01,2013-04-16 19:20:00,
2013-04-16 13:25:00,25.4,9.8,30.34,NE,52,2.0,9.0,51,0.00,,---,0.00,VWS V13.01,2013-04-16 19:25:00,
2013-04-16 13:31:00,25.4,11.5,30.35,WNW,296,0.0,11.0,55,0.00,,---,0.00,VWS V13.01,2013-04-16 19:31:00,
2013-04-16 13:36:00,26.0,11.2,30.35,NNW,337,0.0,5.0,53,0.00,,---,0.00,VWS V13.01,2013-04-16 19:36:00,
2013-04-16 13:41:00,26.7,11.9,30.35,SW,224,3.0,3.0,53,0.00,,---,0.00,VWS V13.01,2013-04-16 19:41:00,
2013-04-16 13:46:00,26.7,12.7,30.33,East,96,0.0,11.0,55,0.01,,---,0.01,VWS V13.01,2013-04-16 19:46:00,
2013-04-16 13:51:00,26.9,11.2,30.33,NW,309,3.0,10.0,51,0.01,,---,0.01,VWS V13.01,2013-04-16 19:51:00,
2013-04-16 13:56:00,26.9,12.5,30.33,NNE,14,0.0,9.0,54,0.01,,---,0.01,VWS V13.01,2013-04-16 19:56:00,
2013-04-16 14:01:00,26.6,10.9,30.34,WSW,254,5.0,7.0,51,0.01,,---,0.01,VWS V13.01,2013-04-16 20:01:00,
2013-04-16 14:06:00,26.3,11.5,30.34,South,173,0.0,6.0,53,0.01,,---,0.01,VWS V13.01,2013-04-16 20:06:00,
2013-04-16 14:11:00,26.1,10.5,30.34,North,360,2.0,11.0,51,0.01,,---,0.01,VWS V13.01,2013-04-16 20:11:00,
2013-04-16 14:16:00,26.3,10.2,30.34,SW,220,4.0,9.0,50,0.01,,---,0.01,VWS V13.01,2013-04-16 20:16:00,
2013-04-16 14:22:00,26.4,10.3,30.34,South,184,2.0,3.0,50,0.01,,---,0.01,VWS V13.01,2013-04-16 20:22:00,
2013-04-16 14:27:00,26.9,9.9,30.34,SW,234,0.0,11.0,48,0.01,,---,0.01,VWS V13.01,2013-04-16 20:27:00,
2013-04-16 14:32:00,27.3,11.1,30.34,SW,221,6.0,6.0,50,0.01,,---,0.01,VWS V13.01,2013-04-16 20:32:00,
2013-04-16 14:37:00,27.2,11.9,30.34,South,178,3.0,7.0,52,0.01,,---,0.01,VWS V13.01,2013-04-16 20:37:00,
2013-04-16 14:43:00,27.2,11.5,30.34,SW,236,4.0,7.0,51,0.01,,---,0.01,VWS V13.01,2013-04-16 20:43:00,
2013-04-16 14:48:00,27.2,10.6,30.35,West,260,2.0,5.0,49,0.00,,---,0.01,VWS V13.01,2013-04-16 20:48:00,
2013-04-16 14:53:00,27.0,10.9,30.35,South,191,1.0,6.0,50,0.00,,---,0.01,VWS V13.01,2013-04-16 20:53:00,
2013-04-16 14:58:00,27.0,11.3,30.35,NNE,28,0.0,5.0,51,0.00,,---,0.01,VWS V13.01,2013-04-16 20:58:00,
2013-04-16 15:03:00,27.0,12.2,30.35,East,83,1.0,3.0,53,0.00,,---,0.01,VWS V13.01,2013-04-16 21:03:00,
2013-04-16 15:09:00,27.5,11.3,30.35,NNE,20,1.0,3.0,50,0.00,,---,0.01,VWS V13.01,2013-04-16 21:09:00,
2013-04-16 15:14:00,27.3,11.1,30.35,SSW,203,1.0,3.0,50,0.00,,---,0.01,VWS V13.01,2013-04-16 21:14:00,
2013-04-16 15:19:00,27.2,11.0,30.35,West,260,4.0,6.0,50,0.00,,---,0.01,VWS V13.01,2013-04-16 21:19:00,
2013-04-16 15:24:00,26.9,11.2,30.35,WSW,248,0.0,6.0,51,0.00,,---,0.01,VWS V13.01,2013-04-16 21:24:00,
2013-04-16 15:29:00,27.0,10.9,30.35,WSW,240,1.0,7.0,50,0.00,,---,0.01,VWS V13.01,2013-04-16 21:29:00,
2013-04-16 15:35:00,27.8,10.2,30.35,North,5,1.0,12.0,47,0.00,,---,0.01,VWS V13.01,2013-04-16 21:35:00,
2013-04-16 15:40:00,28.1,10.5,30.35,South,177,2.0,4.0,47,0.00,,---,0.01,VWS V13.01,2013-04-16 21:40:00,
2013-04-16 15:45:00,27.8,10.2,30.35,East,97,0.0,10.0,47,0.00,,---,0.01,VWS V13.01,2013-04-16 21:45:00,
2013-04-16 15:50:00,27.3,10.2,30.34,SW,217,4.0,8.0,48,0.00,,---,0.01,VWS V13.01,2013-04-16 21:50:00,
2013-04-16 15:55:00,27.0,10.9,30.34,WSW,247,3.0,14.0,50,0.00,,---,0.01,VWS V13.01,2013-04-16 21:55:00,
2013-04-16 16:01:00,26.7,9.7,30.35,WSW,257,0.0,8.0,48,0.00,,---,0.01,VWS V13.01,2013-04-16 22:01:00,
2013-04-16 16:06:00,27.0,10.9,30.35,West,261,1.0,5.0,50,0.00,,---,0.01,VWS V13.01,2013-04-16 22:06:00,
2013-04-16 16:11:00,27.8,12.5,30.35,NW,313,0.0,5.0,52,0.00,,---,0.01,VWS V13.01,2013-04-16 22:11:00,
2013-04-16 16:16:00,28.8,10.6,30.35,SSE,153,2.0,9.0,46,0.00,,---,0.01,VWS V13.01,2013-04-16 22:16:00,
2013-04-16 16:21:00,28.4,11.2,30.35,WSW,250,6.0,8.0,48,0.00,,---,0.01,VWS V13.01,2013-04-16 22:21:00,
2013-04-16 16:26:00,28.1,11.9,30.35,SE,146,1.0,6.0,50,0.00,,---,0.01,VWS V13.01,2013-04-16 22:26:00,
2013-04-16 16:31:00,28.1,10.5,30.35,SSW,199,4.0,4.0,47,0.00,,---,0.01,VWS V13.01,2013-04-16 22:31:00,
2013-04-16 16:36:00,28.1,11.4,30.35,WSW,257,0.0,0.0,49,0.00,,---,0.01,VWS V13.01,2013-04-16 22:36:00,
2013-04-16 16:41:00,27.9,12.1,30.35,West,265,3.0,5.0,51,0.00,,---,0.01,VWS V13.01,2013-04-16 22:41:00,
2013-04-16 16:47:00,27.6,9.5,30.35,South,169,1.0,2.0,46,0.00,,---,0.01,VWS V13.01,2013-04-16 22:47:00,
2013-04-16 16:52:00,27.3,9.7,30.35,SSE,155,5.0,5.0,47,0.00,,---,0.01,VWS V13.01,2013-04-16 22:52:00,
2013-04-16 16:57:00,27.9,9.8,30.35,WSW,246,4.0,8.0,46,0.00,,---,0.01,VWS V13.01,2013-04-16 22:57:00,
2013-04-16 17:02:00,28.5,12.7,30.35,NE,51,6.0,6.0,51,0.00,,---,0.01,VWS V13.01,2013-04-16 23:02:00,
2013-04-16 17:07:00,29.5,11.3,30.35,North,11,2.0,6.0,46,0.00,,---,0.01,VWS V13.01,2013-04-16 23:07:00,
2013-04-16 17:12:00,30.1,12.3,30.35,WNW,288,3.0,5.0,47,0.00,,---,0.01,VWS V13.01,2013-04-16 23:12:00,
2013-04-16 17:18:00,30.3,13.9,30.34,WSW,250,2.0,7.0,50,0.00,,---,0.01,VWS V13.01,2013-04-16 23:18:00,
2013-04-16 17:23:00,29.8,11.6,30.34,NW,311,0.0,11.0,46,0.00,,---,0.01,VWS V13.01,2013-04-16 23:23:00,
2013-04-16 17:28:00,29.3,10.6,30.34,WSW,242,1.0,9.0,45,0.00,,---,0.01,VWS V13.01,2013-04-16 23:28:00,
2013-04-16 17:33:00,29.0,10.3,30.35,WSW,257,0.0,3.0,45,0.00,,---,0.01,VWS V13.01,2013-04-16 23:33:00,
2013-04-16 17:38:00,29.1,11.9,30.35,WNW,286,0.0,12.0,48,0.00,,---,0.01,VWS V13.01,2013-04-16 23:38:00,
2013-04-16 17:43:00,29.4,10.2,30.35,WSW,254,1.0,6.0,44,0.00,,---,0.01,VWS V13.01,2013-04-16 23:43:00,
2013-04-16 17:49:00,29.1,10.9,30.36,WSW,248,0.0,8.0,46,0.00,,---,0.01,VWS V13.01,2013-04-16 23:49:00,
2013-04-16 17:54:00,29.0,10.8,30.36,WSW,256,8.0,8.0,46,0.00,,---,0.01,VWS V13.01,2013-04-16 23:54:00,
2013-04-16 17:59:00,28.7,12.0,30.36,NW,306,2.0,7.0,49,0.00,,---,0.01,VWS V13.01,2013-04-16 23:59:00,
2013-04-16 18:04:00,28.4,11.2,30.36,West,273,0.0,5.0,48,0.00,,---,0.01,VWS V13.01,2013-04-17 00:04:00,
2013-04-16 18:10:00,28.2,11.5,30.36,WSW,252,4.0,8.0,49,0.00,,---,0.01,VWS V13.01,2013-04-17 00:10:00,
2013-04-16 18:15:00,28.1,10.9,30.36,NW,316,3.0,12.0,48,0.00,,---,0.01,VWS V13.01,2013-04-17 00:15:00,
2013-04-16 18:20:00,28.2,12.9,30.37,NW,319,5.0,9.0,52,0.00,,---,0.01,VWS V13.01,2013-04-17 00:20:00,
2013-04-16 18:25:00,28.4,14.3,30.37,SW,233,2.0,5.0,55,0.00,,---,0.01,VWS V13.01,2013-04-17 00:25:00,
2013-04-16 18:30:00,28.7,14.2,30.37,SSE,148,0.0,7.0,54,0.00,,---,0.01,VWS V13.01,2013-04-17 00:30:00,
2013-04-16 18:35:00,28.7,13.8,30.36,South,181,2.0,3.0,53,0.00,,---,0.01,VWS V13.01,2013-04-17 00:35:00,
2013-04-16 18:40:00,28.4,14.3,30.36,NNW,334,1.0,6.0,55,0.00,,---,0.01,VWS V13.01,2013-04-17 00:40:00,
2013-04-16 18:45:00,27.9,13.4,30.36,SW,232,0.0,11.0,54,0.00,,---,0.01,VWS V13.01,2013-04-17 00:45:00,
2013-04-16 18:50:00,27.5,13.5,30.38,West,262,0.0,6.0,55,0.00,,---,0.01,VWS V13.01,2013-04-17 00:50:00,
2013-04-16 18:55:00,27.2,13.6,30.38,WSW,241,0.0,5.0,56,0.00,,---,0.01,VWS V13.01,2013-04-17 00:55:00,
2013-04-16 19:00:00,26.9,14.1,30.39,ESE,114,1.0,5.0,58,0.00,,---,0.01,VWS V13.01,2013-04-17 01:00:00,
2013-04-16 19:06:00,26.6,13.8,30.39,West,281,0.0,4.0,58,0.00,,---,0.01,VWS V13.01,2013-04-17 01:06:00,
2013-04-16 19:11:00,26.4,14.0,30.39,SW,220,1.0,4.0,59,0.00,,---,0.01,VWS V13.01,2013-04-17 01:11:00,
2013-04-16 19:16:00,26.3,13.1,30.39,ENE,67,0.0,6.0,57,0.00,,---,0.01,VWS V13.01,2013-04-17 01:16:00,
2013-04-16 19:21:00,26.1,13.8,30.39,WSW,257,0.0,7.0,59,0.00,,---,0.01,VWS V13.01,2013-04-17 01:21:00,
2013-04-16 19:26:00,25.8,14.2,30.39,West,260,2.0,4.0,61,0.00,,---,0.01,VWS V13.01,2013-04-17 01:26:00,
2013-04-16 19:31:00,25.7,14.1,30.39,North,355,0.0,3.0,61,0.00,,---,0.01,VWS V13.01,2013-04-17 01:31:00,
2013-04-16 19:36:00,25.4,14.2,30.39,WSW,248,0.0,4.0,62,0.00,,---,0.01,VWS V13.01,2013-04-17 01:36:00,
2013-04-16 19:42:00,25.1,14.3,30.39,West,261,0.0,2.0,63,0.00,,---,0.01,VWS V13.01,2013-04-17 01:42:00,
2013-04-16 19:47:00,24.7,13.6,30.41,WSW,254,0.0,0.0,62,0.00,,---,0.01,VWS V13.01,2013-04-17 01:47:00,
2013-04-16 19:52:00,24.4,13.3,30.41,WSW,252,2.0,3.0,62,0.00,,---,0.01,VWS V13.01,2013-04-17 01:52:00,
2013-04-16 19:57:00,24.1,13.0,30.41,WSW,247,1.0,3.0,62,0.00,,---,0.01,VWS V13.01,2013-04-17 01:57:00,
2013-04-16 20:02:00,23.8,12.7,30.42,WSW,238,1.0,2.0,62,0.00,,---,0.01,VWS V13.01,2013-04-17 02:02:00,
2013-04-16 20:08:00,23.6,12.1,30.42,NNW,346,0.0,4.0,61,0.00,,---,0.01,VWS V13.01,2013-04-17 02:08:00,
2013-04-16 20:13:00,23.5,12.0,30.42,WSW,244,5.0,5.0,61,0.00,,---,0.01,VWS V13.01,2013-04-17 02:13:00,
2013-04-16 20:18:00,23.3,12.2,30.43,SW,217,0.0,5.0,62,0.00,,---,0.01,VWS V13.01,2013-04-17 02:18:00,
2013-04-16 20:23:00,23.2,11.8,30.43,SW,231,0.0,3.0,61,0.00,,---,0.01,VWS V13.01,2013-04-17 02:23:00,
2013-04-16 20:28:00,22.9,11.5,30.43,WSW,239,1.0,3.0,61,0.00,,---,0.01,VWS V13.01,2013-04-17 02:28:00,
2013-04-16 20:33:00,22.7,11.6,30.44,SW,228,2.0,2.0,62,0.00,,---,0.01,VWS V13.01,2013-04-17 02:33:00,
2013-04-16 20:39:00,22.5,12.2,30.44,WSW,245,0.0,1.0,64,0.00,,---,0.01,VWS V13.01,2013-04-17 02:39:00,
2013-04-16 20:44:00,22.2,12.6,30.44,East,99,0.0,0.0,66,0.00,,---,0.01,VWS V13.01,2013-04-17 02:44:00,
2013-04-16 20:49:00,22.1,13.2,30.45,SSW,209,0.0,0.0,68,0.00,,---,0.01,VWS V13.01,2013-04-17 02:49:00,
2013-04-16 20:54:00,21.9,13.3,30.45,WSW,248,0.0,3.0,69,0.00,,---,0.01,VWS V13.01,2013-04-17 02:54:00,
2013-04-16 20:59:00,21.8,14.2,30.45,West,259,0.0,2.0,72,0.00,,---,0.01,VWS V13.01,2013-04-17 02:59:00,
2013-04-16 21:05:00,21.8,14.2,30.46,West,259,0.0,0.0,72,0.00,,---,0.01,VWS V13.01,2013-04-17 03:05:00,
2013-04-16 21:10:00,21.6,14.3,30.46,WSW,237,1.0,2.0,73,0.00,,---,0.01,VWS V13.01,2013-04-17 03:10:00,
2013-04-16 21:15:00,21.4,14.4,30.46,SSW,202,0.0,1.0,74,0.00,,---,0.01,VWS V13.01,2013-04-17 03:15:00,
2013-04-16 21:20:00,21.6,14.9,30.46,SW,221,0.0,3.0,75,0.00,,---,0.01,VWS V13.01,2013-04-17 03:20:00,
2013-04-16 21:26:00,21.6,14.9,30.46,West,281,1.0,1.0,75,0.00,,---,0.01,VWS V13.01,2013-04-17 03:26:00,
2013-04-16 21:31:00,21.6,15.2,30.47,West,280,0.0,0.0,76,0.00,,---,0.01,VWS V13.01,2013-04-17 03:31:00,
2013-04-16 21:36:00,21.6,15.2,30.47,WSW,253,0.0,4.0,76,0.00,,---,0.01,VWS V13.01,2013-04-17 03:36:00,
2013-04-16 21:41:00,21.6,15.2,30.47,SSW,201,0.0,3.0,76,0.00,,---,0.01,VWS V13.01,2013-04-17 03:41:00,
2013-04-16 21:46:00,21.4,15.0,30.48,SSW,201,0.0,0.0,76,0.00,,---,0.01,VWS V13.01,2013-04-17 03:46:00,
2013-04-16 21:51:00,21.4,15.0,30.48,SSW,201,0.0,0.0,76,0.00,,---,0.01,VWS V13.01,2013-04-17 03:51:00,
2013-04-16 21:56:00,21.4,15.0,30.48,WSW,244,0.0,2.0,76,0.00,,---,0.01,VWS V13.01,2013-04-17 03:56:00,
2013-04-16 22:00:00,21.4,15.3,30.48,NNE,16,2.0,2.0,77,0.00,,---,0.01,VWS V13.01,2013-04-17 04:00:00,
2013-04-16 22:01:00,21.4,15.3,30.48,NNE,17,0.0,3.0,77,0.00,,---,0.01,VWS V13.01,2013-04-17 04:01:00,
2013-04-16 22:05:00,21.4,15.3,30.48,West,273,0.0,3.0,77,0.00,,---,0.01,VWS V13.01,2013-04-17 04:05:00,
2013-04-16 22:10:00,21.6,15.8,30.48,WNW,298,0.0,1.0,78,0.00,,---,0.01,VWS V13.01,2013-04-17 04:10:00,
2013-04-16 22:15:00,21.6,16.1,30.48,NE,39,0.0,2.0,79,0.00,,---,0.01,VWS V13.01,2013-04-17 04:15:00,
2013-04-16 22:20:00,21.6,16.1,30.47,ENE,77,0.0,1.0,79,0.00,,---,0.01,VWS V13.01,2013-04-17 04:20:00,
2013-04-16 22:25:00,21.6,16.4,30.47,West,261,0.0,3.0,80,0.00,,---,0.01,VWS V13.01,2013-04-17 04:25:00,
2013-04-16 22:30:00,21.4,16.2,30.47,WSW,241,0.0,3.0,80,0.00,,---,0.01,VWS V13.01,2013-04-17 04:30:00,
2013-04-16 22:35:00,21.4,16.2,30.48,West,263,0.0,4.0,80,0.00,,---,0.01,VWS V13.01,2013-04-17 04:35:00,
2013-04-16 22:41:00,21.3,16.1,30.48,WSW,244,2.0,3.0,80,0.00,,---,0.01,VWS V13.01,2013-04-17 04:41:00,
2013-04-16 22:46:00,21.1,15.9,30.48,WSW,254,2.0,4.0,80,0.00,,---,0.01,VWS V13.01,2013-04-17 04:46:00,
2013-04-16 22:51:00,21.1,15.9,30.48,WSW,257,0.0,0.0,80,0.00,,---,0.01,VWS V13.01,2013-04-17 04:51:00,
2013-04-16 22:56:00,21.0,15.8,30.48,West,259,0.0,0.0,80,0.00,,---,0.01,VWS V13.01,2013-04-17 04:56:00,
2013-04-16 23:01:00,21.0,15.8,30.48,West,264,1.0,2.0,80,0.00,,---,0.01,VWS V13.01,2013-04-17 05:01:00,
2013-04-16 23:07:00,20.8,15.6,30.48,West,277,0.0,0.0,80,0.00,,---,0.01,VWS V13.01,2013-04-17 05:07:00,
2013-04-16 23:12:00,20.8,15.6,30.48,West,281,0.0,0.0,80,0.00,,---,0.01,VWS V13.01,2013-04-17 05:12:00,
2013-04-16 23:17:00,20.8,15.3,30.47,West,271,3.0,4.0,79,0.00,,---,0.01,VWS V13.01,2013-04-17 05:17:00,
2013-04-16 23:22:00,20.6,15.1,30.47,West,261,0.0,0.0,79,0.00,,---,0.01,VWS V13.01,2013-04-17 05:22:00,
2013-04-16 23:27:00,20.6,14.8,30.47,WSW,257,0.0,1.0,78,0.00,,---,0.01,VWS V13.01,2013-04-17 05:27:00,
2013-04-16 23:33:00,20.6,14.8,30.47,NNE,28,0.0,0.0,78,0.00,,---,0.01,VWS V13.01,2013-04-17 05:33:00,
2013-04-16 23:38:00,20.8,15.0,30.47,NNE,28,0.0,0.0,78,0.00,,---,0.01,VWS V13.01,2013-04-17 05:38:00,
2013-04-16 23:43:00,20.8,14.7,30.47,East,98,0.0,2.0,77,0.00,,---,0.01,VWS V13.01,2013-04-17 05:43:00,
2013-04-16 23:48:00,20.8,14.7,30.47,East,97,0.0,0.0,77,0.00,,---,0.01,VWS V13.01,2013-04-17 05:48:00,
2013-04-16 23:53:00,20.8,14.7,30.47,East,97,0.0,0.0,77,0.00,,---,0.01,VWS V13.01,2013-04-17 05:53:00,
2013-04-16 23:58:00,20.8,14.4,30.47,East,97,0.0,0.0,76,0.00,,---,0.01,VWS V13.01,2013-04-17 05:58:00,